This is the latest recevied weather packets stored in our database for station/object NW6UP. If no packets are shown the sender has not sent any weather packets the latest 10 day(s).
| Time | Temp. | Humidity | Pressure | Rain* | Wind** | Luminosity | Snow |
|---|---|---|---|---|---|---|---|
| 1777902266 | 8.33° C | 92% | 1014.1 hPa | 0 mm | - | - | - |
| 1777901066 | 8.33° C | 92% | 1014.2 hPa | 0 mm | - | - | - |
| 1777899865 | 8.33° C | 92% | 1014.2 hPa | 0 mm | - | - | - |
| 1777898667 | 8.33° C | 93% | 1014.1 hPa | 0 mm | - | - | - |
| 1777897465 | 7.78° C | 91% | 1014.1 hPa | 0 mm | - | - | - |
| 1777896269 | 8.33° C | 90% | 1014.2 hPa | 0 mm | - | - | - |
| 1777895068 | 8.33° C | 89% | 0 hPa | 0 mm | - | - | - |
| 1777893865 | 8.89° C | 90% | 1014.2 hPa | 0 mm | - | - | - |
| 1777892666 | 8.89° C | 90% | 0 hPa | 0 mm | - | - | - |
| 1777891465 | 8.89° C | 89% | 0 hPa | 0 mm | - | - | - |
| 1777890265 | 8.89° C | 88% | 1014 hPa | 0 mm | - | - | - |
| 1777889066 | 8.89° C | 87% | 0 hPa | 0 mm | - | - | - |
| 1777887865 | 9.44° C | 85% | 0 hPa | 0 mm | - | - | - |
| 1777886666 | 9.44° C | 83% | 1014.2 hPa | 0 mm | - | - | - |
| 1777885467 | 10° C | 81% | 0 hPa | 0 mm | - | - | - |
| 1777884267 | 11.11° C | 79% | 1014.3 hPa | 0 mm | - | - | - |
| 1777883065 | 11.11° C | 79% | 1014.4 hPa | 0 mm | - | - | - |
| 1777881868 | 11.11° C | 79% | 1014.4 hPa | 0 mm | - | - | - |
| 1777879466 | 11.11° C | 77% | 1014.3 hPa | 0 mm | - | - | - |
| 1777878266 | 11.67° C | 75% | 1014.3 hPa | 0 mm | - | - | - |
| 1777875867 | 12.22° C | 74% | 0 hPa | 0 mm | - | - | - |
| 1777873466 | 12.22° C | 71% | 1013.7 hPa | 0 mm | - | - | - |
| 1777872267 | 12.78° C | 68% | 0 hPa | 0 mm | - | - | - |
| 1777871067 | 12.78° C | 68% | 1013.4 hPa | 0 mm | - | - | - |
| 1777869865 | 12.78° C | 69% | 0 hPa | 0 mm | - | - | - |
* Rain latest hour (hover to see other rain measurements)
** Current wind speed in m/s (hover to see current wind gust speed)